Terminal Aerodrome Forecast
Issued by NWS Knoxville/Tri Cities, TN

Home | Current Version | Previous Version | Text Only | Print | Product List | Glossary On
Versions: 1 2 3 4 5 6 7 8 9 10 11 12 13 14 15 16 17 18 19 20 21 22 23 24 25 26 27 28 29 30 31 32 33 34
000
FTUS44 KMRX 212326
TAFTYS
TAF
KTYS 212326Z 2200/2224 24005KT P6SM SCT045
     FM220200 23003KT P6SM FEW050 BKN250
     FM220900 VRB03KT 5SM BR FEW005 SCT200
     FM221300 24007KT P6SM SCT045=

USA.gov is the U.S. government's official web portal to all federal, state and local government web resources and services.